Time,TemperatureF,DewpointF,PressureIn,WindDirection,WindDirectionDegrees,WindSpeedMPH,WindSpeedGustMPH,Humidity,HourlyPrecipIn,Conditions,Clouds,dailyrainin,SoftwareType,DateUTC
2013-03-02 00:01:00,30.0,25.0,-100.00,SW,223,35.0,42.0,81,0.00,,,-99.99,,2013-03-02 07:01:00,
2013-03-02 00:11:00,29.0,24.0,-100.00,SW,222,36.0,44.0,81,0.00,,,-99.99,,2013-03-02 07:11:00,
2013-03-02 00:21:00,29.0,24.0,-100.00,SW,223,35.0,44.0,81,0.00,,,-99.99,,2013-03-02 07:21:00,
2013-03-02 00:32:00,29.0,24.0,-100.00,SW,223,34.0,44.0,82,0.00,,,-99.99,,2013-03-02 07:32:00,
2013-03-02 00:42:00,29.0,24.0,-100.00,SW,223,31.0,42.0,81,0.00,,,-99.99,,2013-03-02 07:42:00,
2013-03-02 00:51:00,29.0,24.0,-100.00,SW,222,30.0,40.0,82,0.00,,,-99.99,,2013-03-02 07:51:00,
2013-03-02 01:01:00,29.0,24.0,-100.00,SW,216,29.0,35.0,83,0.00,,,-99.99,,2013-03-02 08:01:00,
2013-03-02 01:11:00,29.0,24.0,-100.00,SSW,213,32.0,42.0,83,0.00,,,-99.99,,2013-03-02 08:11:00,
2013-03-02 01:21:00,29.0,24.0,-100.00,SSW,210,29.0,35.0,82,0.00,,,-99.99,,2013-03-02 08:21:00,
2013-03-02 01:32:00,29.0,24.0,-100.00,SSW,209,26.0,35.0,82,0.00,,,-99.99,,2013-03-02 08:32:00,
2013-03-02 01:42:00,29.0,24.0,-100.00,SSW,210,26.0,33.0,82,0.00,,,-99.99,,2013-03-02 08:42:00,
2013-03-02 01:52:00,29.0,24.0,-100.00,SSW,210,26.0,33.0,82,0.00,,,-99.99,,2013-03-02 08:52:00,
2013-03-02 02:01:00,29.0,24.0,-100.00,SSW,210,26.0,33.0,82,0.00,,,-99.99,,2013-03-02 09:01:00,
2013-03-02 02:11:00,29.0,24.0,-100.00,SSW,210,26.0,33.0,82,0.00,,,-99.99,,2013-03-02 09:11:00,
2013-03-02 02:21:00,29.0,24.0,-100.00,SSW,210,26.0,33.0,82,0.00,,,-99.99,,2013-03-02 09:21:00,
2013-03-02 08:22:00,30.0,24.0,-100.00,SSW,209,33.0,44.0,77,0.00,,,-99.99,,2013-03-02 15:22:00,
2013-03-02 08:32:00,30.0,24.0,-100.00,SSW,210,34.0,42.0,77,0.00,,,-99.99,,2013-03-02 15:32:00,
2013-03-02 08:42:00,30.0,23.0,-100.00,SSW,210,35.0,44.0,77,0.00,,,-99.99,,2013-03-02 15:42:00,
2013-03-02 08:52:00,30.0,24.0,-100.00,SSW,212,35.0,45.0,77,0.00,,,-99.99,,2013-03-02 15:52:00,
2013-03-02 09:01:00,30.0,24.0,-100.00,SSW,212,36.0,45.0,77,0.00,,,-99.99,,2013-03-02 16:01:00,
2013-03-02 09:11:00,30.0,24.0,-100.00,SW,215,37.0,45.0,77,0.00,,,-99.99,,2013-03-02 16:11:00,
2013-03-02 09:21:00,30.0,24.0,-100.00,SW,217,33.0,40.0,76,0.00,,,-99.99,,2013-03-02 16:21:00,
2013-03-02 09:32:00,31.0,24.0,-100.00,SW,220,34.0,44.0,76,0.00,,,-99.99,,2013-03-02 16:32:00,
2013-03-02 09:41:00,31.0,24.0,-100.00,SW,220,34.0,42.0,75,0.00,,,-99.99,,2013-03-02 16:41:00,
2013-03-02 09:51:00,31.0,24.0,-100.00,SW,220,33.0,42.0,74,0.00,,,-99.99,,2013-03-02 16:51:00,
2013-03-02 10:01:00,31.0,24.0,-100.00,SW,219,33.0,41.0,75,0.00,,,-99.99,,2013-03-02 17:01:00,
2013-03-02 10:11:00,31.0,24.0,-100.00,SW,220,31.0,40.0,74,0.00,,,-99.99,,2013-03-02 17:11:00,
2013-03-02 10:21:00,32.0,24.0,-100.00,SW,220,32.0,40.0,73,0.00,,,-99.99,,2013-03-02 17:21:00,
2013-03-02 10:32:00,32.0,25.0,-100.00,SW,215,34.0,42.0,74,0.00,,,-99.99,,2013-03-02 17:32:00,
2013-03-02 10:42:00,32.0,24.0,-100.00,SW,219,33.0,42.0,72,0.00,,,-99.99,,2013-03-02 17:42:00,
2013-03-02 10:52:00,33.0,24.0,-100.00,SW,219,32.0,40.0,70,0.00,,,-99.99,,2013-03-02 17:52:00,
2013-03-02 11:02:00,33.0,24.0,-100.00,SW,222,34.0,45.0,70,0.00,,,-99.99,,2013-03-02 18:02:00,
2013-03-02 11:11:00,33.0,24.0,-100.00,SW,222,34.0,45.0,70,0.00,,,-99.99,,2013-03-02 18:11:00,
2013-03-02 11:22:00,33.0,24.0,-100.00,SW,226,34.0,42.0,69,0.00,,,-99.99,,2013-03-02 18:22:00,
2013-03-02 11:32:00,34.0,24.0,-100.00,SW,224,32.0,41.0,68,0.00,,,-99.99,,2013-03-02 18:32:00,
2013-03-02 11:42:00,34.0,25.0,-100.00,SW,224,32.0,40.0,68,0.00,,,-99.99,,2013-03-02 18:42:00,
2013-03-02 11:52:00,34.0,25.0,-100.00,SW,230,34.0,40.0,70,0.00,,,-99.99,,2013-03-02 18:52:00,
2013-03-02 12:01:00,34.0,25.0,-100.00,SW,233,32.0,39.0,70,0.00,,,-99.99,,2013-03-02 19:01:00,
2013-03-02 12:11:00,34.0,26.0,-100.00,SW,230,30.0,39.0,71,0.00,,,-99.99,,2013-03-02 19:11:00,
2013-03-02 12:21:00,35.0,25.0,-100.00,SW,229,31.0,39.0,67,0.00,,,-99.99,,2013-03-02 19:21:00,
2013-03-02 12:32:00,35.0,26.0,-100.00,SW,229,29.0,39.0,68,0.00,,,-99.99,,2013-03-02 19:32:00,
2013-03-02 12:42:00,35.0,25.0,-100.00,SW,224,32.0,40.0,67,0.00,,,-99.99,,2013-03-02 19:42:00,
2013-03-02 12:52:00,36.0,25.0,-100.00,SW,229,29.0,37.0,64,0.00,,,-99.99,,2013-03-02 19:52:00,
2013-03-02 13:01:00,36.0,26.0,-100.00,SW,222,31.0,40.0,68,0.00,,,-99.99,,2013-03-02 20:01:00,
2013-03-02 13:11:00,36.0,25.0,-100.00,SW,223,32.0,40.0,65,0.00,,,-99.99,,2013-03-02 20:11:00,
2013-03-02 13:22:00,36.0,26.0,-100.00,SW,226,32.0,41.0,67,0.00,,,-99.99,,2013-03-02 20:22:00,
2013-03-02 13:32:00,36.0,26.0,-100.00,SW,224,32.0,40.0,67,0.00,,,-99.99,,2013-03-02 20:32:00,
2013-03-02 13:42:00,36.0,25.0,-100.00,SW,224,35.0,42.0,64,0.00,,,-99.99,,2013-03-02 20:42:00,
2013-03-02 13:52:00,37.0,25.0,-100.00,SW,222,34.0,40.0,61,0.00,,,-99.99,,2013-03-02 20:52:00,
2013-03-02 14:02:00,37.0,24.0,-100.00,SW,224,31.0,39.0,58,0.00,,,-99.99,,2013-03-02 21:02:00,
2013-03-02 14:11:00,38.0,24.0,-100.00,SW,227,29.0,36.0,56,0.00,,,-99.99,,2013-03-02 21:11:00,
2013-03-02 14:22:00,38.0,23.0,-100.00,SW,227,32.0,39.0,56,0.00,,,-99.99,,2013-03-02 21:22:00,
2013-03-02 14:32:00,37.0,24.0,-100.00,SW,224,35.0,42.0,58,0.00,,,-99.99,,2013-03-02 21:32:00,
2013-03-02 14:42:00,38.0,24.0,-100.00,SW,220,32.0,40.0,57,0.00,,,-99.99,,2013-03-02 21:42:00,
2013-03-02 14:52:00,38.0,22.0,-100.00,SW,217,30.0,41.0,51,0.00,,,-99.99,,2013-03-02 21:52:00,
2013-03-02 15:02:00,39.0,23.0,-100.00,SW,217,29.0,38.0,53,0.00,,,-99.99,,2013-03-02 22:02:00,
2013-03-02 15:11:00,39.0,22.0,-100.00,SW,216,29.0,35.0,52,0.00,,,-99.99,,2013-03-02 22:11:00,
2013-03-02 15:21:00,39.0,22.0,-100.00,SW,219,27.0,36.0,50,0.00,,,-99.99,,2013-03-02 22:21:00,
2013-03-02 15:32:00,39.0,22.0,-100.00,SW,223,24.0,32.0,49,0.00,,,-99.99,,2013-03-02 22:32:00,
2013-03-02 15:42:00,40.0,24.0,-100.00,WSW,237,22.0,30.0,54,0.00,,,-99.99,,2013-03-02 22:42:00,
2013-03-02 15:51:00,39.0,25.0,-100.00,WSW,241,19.0,26.0,57,0.00,,,-99.99,,2013-03-02 22:51:00,
2013-03-02 16:01:00,38.0,25.0,-100.00,WSW,243,21.0,26.0,59,0.00,,,-99.99,,2013-03-02 23:01:00,
2013-03-02 16:11:00,39.0,25.0,-100.00,WSW,239,23.0,31.0,59,0.00,,,-99.99,,2013-03-02 23:11:00,
2013-03-02 16:21:00,39.0,23.0,-100.00,WSW,237,19.0,27.0,52,0.00,,,-99.99,,2013-03-02 23:21:00,
2013-03-02 16:32:00,40.0,23.0,-100.00,SW,232,17.0,26.0,51,0.00,,,-99.99,,2013-03-02 23:32:00,
2013-03-02 16:42:00,39.0,26.0,-100.00,WSW,241,15.0,24.0,59,0.00,,,-99.99,,2013-03-02 23:42:00,
2013-03-02 16:52:00,39.0,24.0,-100.00,WSW,243,17.0,24.0,56,0.00,,,-99.99,,2013-03-02 23:52:00,
2013-03-02 17:02:00,37.0,25.0,-100.00,WSW,241,19.0,26.0,61,0.00,,,-99.99,,2013-03-03 00:02:00,
2013-03-02 17:11:00,37.0,26.0,-100.00,WSW,246,18.0,26.0,64,0.00,,,-99.99,,2013-03-03 00:11:00,
2013-03-02 17:22:00,37.0,24.0,-100.00,WSW,237,21.0,26.0,59,0.00,,,-99.99,,2013-03-03 00:22:00,
2013-03-02 17:32:00,37.0,24.0,-100.00,SW,232,18.0,24.0,58,0.00,,,-99.99,,2013-03-03 00:32:00,
2013-03-02 17:42:00,37.0,23.0,-100.00,SW,222,18.0,24.0,56,0.00,,,-99.99,,2013-03-03 00:42:00,
2013-03-02 17:52:00,37.0,21.0,-100.00,SW,215,20.0,26.0,51,0.00,,,-99.99,,2013-03-03 00:52:00,
2013-03-02 18:01:00,38.0,20.0,-100.00,SSW,209,21.0,28.0,48,0.00,,,-99.99,,2013-03-03 01:01:00,
2013-03-02 18:11:00,38.0,21.0,-100.00,SSW,209,23.0,33.0,49,0.00,,,-99.99,,2013-03-03 01:11:00,
2013-03-02 18:21:00,38.0,21.0,-100.00,SSW,202,22.0,27.0,50,0.00,,,-99.99,,2013-03-03 01:21:00,
2013-03-02 18:32:00,38.0,20.0,-100.00,SSW,206,20.0,26.0,49,0.00,,,-99.99,,2013-03-03 01:32:00,
2013-03-02 18:41:00,38.0,19.0,-100.00,SSW,199,21.0,26.0,47,0.00,,,-99.99,,2013-03-03 01:41:00,
2013-03-02 18:52:00,38.0,21.0,-100.00,SSW,192,26.0,31.0,51,0.00,,,-99.99,,2013-03-03 01:52:00,
2013-03-02 19:01:00,37.0,21.0,-100.00,South,191,24.0,29.0,51,0.00,,,-99.99,,2013-03-03 02:01:00,
2013-03-02 19:11:00,38.0,19.0,-100.00,South,189,25.0,31.0,46,0.00,,,-99.99,,2013-03-03 02:11:00,
2013-03-02 19:21:00,37.0,20.0,-100.00,South,185,23.0,29.0,49,0.00,,,-99.99,,2013-03-03 02:21:00,
2013-03-02 19:32:00,37.0,20.0,-100.00,South,188,16.0,20.0,50,0.00,,,-99.99,,2013-03-03 02:32:00,
2013-03-02 19:41:00,38.0,18.0,-100.00,South,188,12.0,17.0,45,0.00,,,-99.99,,2013-03-03 02:41:00,
2013-03-02 19:52:00,38.0,18.0,-100.00,South,188,13.0,23.0,45,0.00,,,-99.99,,2013-03-03 02:52:00,
2013-03-02 20:01:00,38.0,20.0,-100.00,SSW,202,19.0,26.0,47,0.00,,,-99.99,,2013-03-03 03:01:00,
2013-03-02 20:11:00,38.0,19.0,-100.00,SSW,205,17.0,25.0,45,0.00,,,-99.99,,2013-03-03 03:11:00,
2013-03-02 20:21:00,37.0,20.0,-100.00,SSW,209,15.0,18.0,51,0.00,,,-99.99,,2013-03-03 03:21:00,
2013-03-02 20:31:00,37.0,20.0,-100.00,SSW,209,16.0,19.0,50,0.00,,,-99.99,,2013-03-03 03:31:00,
2013-03-02 20:41:00,37.0,20.0,-100.00,SSW,210,16.0,19.0,51,0.00,,,-99.99,,2013-03-03 03:41:00,
2013-03-02 20:51:00,37.0,20.0,-100.00,SSW,203,16.0,19.0,51,0.00,,,-99.99,,2013-03-03 03:51:00,
2013-03-02 21:01:00,38.0,20.0,-100.00,SSW,210,15.0,18.0,48,0.00,,,-99.99,,2013-03-03 04:01:00,
2013-03-02 21:21:00,40.0,19.0,-100.00,SSW,202,22.0,29.0,43,0.00,,,-99.99,,2013-03-03 04:21:00,
2013-03-02 21:31:00,39.0,19.0,-100.00,SSW,200,23.0,29.0,45,0.00,,,-99.99,,2013-03-03 04:31:00,
2013-03-02 21:41:00,39.0,18.0,-100.00,SSW,202,22.0,28.0,43,0.00,,,-99.99,,2013-03-03 04:41:00,
2013-03-02 21:51:00,38.0,19.0,-100.00,SSW,195,9.0,14.0,46,0.00,,,-99.99,,2013-03-03 04:51:00,
2013-03-02 22:02:00,38.0,19.0,-100.00,SSW,193,16.0,24.0,46,0.00,,,-99.99,,2013-03-03 05:02:00,
2013-03-02 22:11:00,38.0,19.0,-100.00,SSW,192,19.0,24.0,45,0.00,,,-99.99,,2013-03-03 05:11:00,
2013-03-02 22:22:00,38.0,18.0,-100.00,SSW,193,24.0,32.0,44,0.00,,,-99.99,,2013-03-03 05:22:00,
2013-03-02 22:32:00,38.0,18.0,-100.00,SSW,192,27.0,33.0,44,0.00,,,-99.99,,2013-03-03 05:32:00,
2013-03-02 22:42:00,39.0,18.0,-100.00,SSW,195,28.0,32.0,42,0.00,,,-99.99,,2013-03-03 05:42:00,
2013-03-02 22:52:00,39.0,17.0,-100.00,SSW,195,28.0,35.0,40,0.00,,,-99.99,,2013-03-03 05:52:00,
2013-03-02 23:02:00,39.0,17.0,-100.00,SSW,196,30.0,36.0,40,0.00,,,-99.99,,2013-03-03 06:02:00,
2013-03-02 23:11:00,39.0,16.0,-100.00,SSW,196,29.0,36.0,39,0.00,,,-99.99,,2013-03-03 06:11:00,
2013-03-02 23:21:00,39.0,18.0,-100.00,SSW,199,25.0,31.0,42,0.00,,,-99.99,,2013-03-03 06:21:00,
2013-03-02 23:31:00,39.0,18.0,-100.00,SSW,200,26.0,32.0,41,0.00,,,-99.99,,2013-03-03 06:31:00,
2013-03-02 23:42:00,39.0,18.0,-100.00,SSW,208,20.0,27.0,43,0.00,,,-99.99,,2013-03-03 06:42:00,
2013-03-02 23:52:00,38.0,18.0,-100.00,SSW,209,16.0,21.0,43,0.00,,,-99.99,,2013-03-03 06:52:00,